Time,TemperatureF,DewpointF,PressureIn,WindDirection,WindDirectionDegrees,WindSpeedMPH,WindSpeedGustMPH,Humidity,HourlyPrecipIn,Conditions,Clouds,dailyrainin,SoftwareType,DateUTC
2013-05-13 00:02:00,49.0,-99.9,-100.00,SSW,205,2.0,3.0,-999,0.00,,,0.00,,2013-05-13 05:02:00,
2013-05-13 00:12:00,49.0,-99.9,-100.00,SSW,205,2.0,3.0,-999,0.00,,,0.00,,2013-05-13 05:12:00,
2013-05-13 00:22:00,49.0,-99.9,-100.00,SSW,205,2.0,3.0,-999,0.00,,,0.00,,2013-05-13 05:22:00,
2013-05-13 00:32:00,48.0,-99.9,-100.00,South,184,1.0,2.0,-999,0.00,,,0.00,,2013-05-13 05:32:00,
2013-05-13 00:42:00,48.0,-99.9,-100.00,South,184,1.0,2.0,-999,0.00,,,0.00,,2013-05-13 05:42:00,
2013-05-13 00:52:00,48.0,-99.9,-100.00,South,184,1.0,2.0,-999,0.00,,,0.00,,2013-05-13 05:52:00,
2013-05-13 01:01:00,46.0,-99.9,-100.00,ESE,112,0.0,0.0,-999,0.00,,,0.00,,2013-05-13 06:01:00,
2013-05-13 01:12:00,46.0,-99.9,-100.00,ESE,112,0.0,0.0,-999,0.00,,,0.00,,2013-05-13 06:12:00,
2013-05-13 01:22:00,46.0,-99.9,-100.00,ESE,112,0.0,0.0,-999,0.00,,,0.00,,2013-05-13 06:22:00,
2013-05-13 01:32:00,45.0,-99.9,-100.00,SSE,151,0.0,0.0,-999,0.00,,,0.00,,2013-05-13 06:32:00,
2013-05-13 01:42:00,45.0,-99.9,-100.00,SSE,151,0.0,0.0,-999,0.00,,,0.00,,2013-05-13 06:42:00,
2013-05-13 01:52:00,45.0,-99.9,-100.00,SSE,151,0.0,0.0,-999,0.00,,,0.00,,2013-05-13 06:52:00,
2013-05-13 02:00:00,46.0,-99.9,-100.00,SSW,211,2.0,3.0,-999,0.00,,,0.00,,2013-05-13 07:00:00,
2013-05-13 02:02:00,45.0,-99.9,-100.00,SSW,204,0.0,0.0,-999,0.00,,,0.00,,2013-05-13 07:02:00,
2013-05-13 02:12:00,45.0,-99.9,-100.00,SSW,204,0.0,0.0,-999,0.00,,,0.00,,2013-05-13 07:12:00,
2013-05-13 02:22:00,45.0,-99.9,-100.00,SSW,204,0.0,0.0,-999,0.00,,,0.00,,2013-05-13 07:22:00,
2013-05-13 02:32:00,46.0,-99.9,-100.00,SSW,211,2.0,3.0,-999,0.00,,,0.00,,2013-05-13 07:32:00,
2013-05-13 02:42:00,46.0,-99.9,-100.00,SSW,211,2.0,3.0,-999,0.00,,,0.00,,2013-05-13 07:42:00,
2013-05-13 02:52:00,46.0,-99.9,-100.00,SSW,211,2.0,3.0,-999,0.00,,,0.00,,2013-05-13 07:52:00,
2013-05-13 03:32:00,43.0,-99.9,-100.00,SE,125,1.0,1.0,-999,0.00,,,0.00,,2013-05-13 08:32:00,
2013-05-13 03:42:00,43.0,-99.9,-100.00,SE,125,1.0,1.0,-999,0.00,,,0.00,,2013-05-13 08:42:00,
2013-05-13 03:52:00,43.0,-99.9,-100.00,SE,125,1.0,1.0,-999,0.00,,,0.00,,2013-05-13 08:52:00,
2013-05-13 04:01:00,44.0,-99.9,-100.00,South,186,1.0,1.0,-999,0.00,,,0.00,,2013-05-13 09:01:00,
2013-05-13 04:11:00,44.0,-99.9,-100.00,South,186,1.0,1.0,-999,0.00,,,0.00,,2013-05-13 09:11:00,
2013-05-13 04:22:00,44.0,-99.9,-100.00,South,186,1.0,1.0,-999,0.00,,,0.00,,2013-05-13 09:22:00,
2013-05-13 04:30:00,43.0,-99.9,-100.00,South,178,1.0,2.0,-999,0.00,,,0.00,,2013-05-13 09:30:00,
2013-05-13 04:33:00,43.0,-99.9,-100.00,SSE,165,0.0,1.0,-999,0.00,,,0.00,,2013-05-13 09:33:00,
2013-05-13 04:42:00,43.0,-99.9,-100.00,SSE,165,0.0,1.0,-999,0.00,,,0.00,,2013-05-13 09:42:00,
2013-05-13 04:52:00,43.0,-99.9,-100.00,SSE,165,0.0,1.0,-999,0.00,,,0.00,,2013-05-13 09:52:00,
2013-05-13 05:03:00,43.0,-99.9,-100.00,South,178,1.0,2.0,-999,0.00,,,0.00,,2013-05-13 10:03:00,
2013-05-13 05:12:00,43.0,-99.9,-100.00,South,178,1.0,2.0,-999,0.00,,,0.00,,2013-05-13 10:12:00,
2013-05-13 05:22:00,43.0,-99.9,-100.00,South,178,1.0,2.0,-999,0.00,,,0.00,,2013-05-13 10:22:00,
2013-05-13 05:30:00,43.0,-99.9,-100.00,SSW,203,1.0,2.0,-999,0.00,,,0.00,,2013-05-13 10:30:00,
2013-05-13 06:03:00,43.0,-99.9,-100.00,SSW,203,1.0,2.0,-999,0.00,,,0.00,,2013-05-13 11:03:00,
2013-05-13 06:12:00,43.0,-99.9,-100.00,SSW,203,1.0,2.0,-999,0.00,,,0.00,,2013-05-13 11:12:00,
2013-05-13 06:22:00,43.0,-99.9,-100.00,SSW,203,1.0,2.0,-999,0.00,,,0.00,,2013-05-13 11:22:00,
2013-05-13 07:02:00,44.0,-99.9,-100.00,SE,138,0.0,0.0,-999,0.00,,,0.00,,2013-05-13 12:02:00,
2013-05-13 07:12:00,44.0,-99.9,-100.00,SE,138,0.0,0.0,-999,0.00,,,0.00,,2013-05-13 12:12:00,
2013-05-13 07:22:00,44.0,-99.9,-100.00,SE,138,0.0,0.0,-999,0.00,,,0.00,,2013-05-13 12:22:00,
2013-05-13 07:32:00,45.0,-99.9,-100.00,SW,224,3.0,8.0,-999,0.00,,,0.00,,2013-05-13 12:32:00,
2013-05-13 07:42:00,45.0,-99.9,-100.00,SW,224,3.0,8.0,-999,0.00,,,0.00,,2013-05-13 12:42:00,
2013-05-13 07:52:00,45.0,-99.9,-100.00,SW,224,3.0,8.0,-999,0.00,,,0.00,,2013-05-13 12:52:00,
2013-05-13 08:00:00,49.0,-99.9,-100.00,SW,232,2.0,4.0,-999,0.00,,,0.00,,2013-05-13 13:00:00,
2013-05-13 08:01:00,45.0,-99.9,-100.00,SW,225,4.0,5.0,-999,0.00,,,0.00,,2013-05-13 13:01:00,
2013-05-13 08:11:00,45.0,-99.9,-100.00,SW,225,4.0,5.0,-999,0.00,,,0.00,,2013-05-13 13:11:00,
2013-05-13 08:22:00,45.0,-99.9,-100.00,SW,225,4.0,5.0,-999,0.00,,,0.00,,2013-05-13 13:22:00,
2013-05-13 08:32:00,49.0,-99.9,-100.00,SW,232,2.0,4.0,-999,0.00,,,0.00,,2013-05-13 13:32:00,
2013-05-13 08:42:00,49.0,-99.9,-100.00,SW,232,2.0,4.0,-999,0.00,,,0.00,,2013-05-13 13:42:00,
2013-05-13 08:52:00,49.0,-99.9,-100.00,SW,232,2.0,4.0,-999,0.00,,,0.00,,2013-05-13 13:52:00,
2013-05-13 09:42:00,54.0,-99.9,-100.00,SW,222,1.0,3.0,-999,0.00,,,0.00,,2013-05-13 14:42:00,
2013-05-13 09:52:00,54.0,-99.9,-100.00,SW,222,1.0,3.0,-999,0.00,,,0.00,,2013-05-13 14:52:00,
2013-05-13 10:01:00,56.0,-99.9,-100.00,West,264,3.0,4.0,-999,0.00,,,0.00,,2013-05-13 15:01:00,
2013-05-13 10:11:00,56.0,-99.9,-100.00,West,264,3.0,4.0,-999,0.00,,,0.00,,2013-05-13 15:11:00,
2013-05-13 10:22:00,56.0,-99.9,-100.00,West,264,3.0,4.0,-999,0.00,,,0.00,,2013-05-13 15:22:00,
2013-05-13 10:30:00,59.0,-99.9,-100.00,WSW,254,2.0,4.0,-999,0.00,,,0.00,,2013-05-13 15:30:00,
2013-05-13 10:32:00,58.0,-99.9,-100.00,SSW,205,2.0,3.0,-999,0.00,,,0.00,,2013-05-13 15:32:00,
2013-05-13 10:42:00,58.0,-99.9,-100.00,SSW,205,2.0,3.0,-999,0.00,,,0.00,,2013-05-13 15:42:00,
2013-05-13 10:53:00,58.0,-99.9,-100.00,SSW,205,2.0,3.0,-999,0.00,,,0.00,,2013-05-13 15:53:00,
2013-05-13 11:00:00,61.0,-99.9,-100.00,West,261,2.0,4.0,-999,0.00,,,0.00,,2013-05-13 16:00:00,
2013-05-13 11:03:00,59.0,-99.9,-100.00,WSW,254,2.0,4.0,-999,0.00,,,0.00,,2013-05-13 16:03:00,
2013-05-13 11:12:00,59.0,-99.9,-100.00,WSW,254,2.0,4.0,-999,0.00,,,0.00,,2013-05-13 16:12:00,
2013-05-13 11:22:00,59.0,-99.9,-100.00,WSW,254,2.0,4.0,-999,0.00,,,0.00,,2013-05-13 16:22:00,
2013-05-13 11:53:00,61.0,-99.9,-100.00,West,261,2.0,4.0,-999,0.00,,,0.00,,2013-05-13 16:53:00,
2013-05-13 12:30:00,65.0,-99.9,-100.00,SW,218,4.0,8.0,-999,0.00,,,0.00,,2013-05-13 17:30:00,
2013-05-13 12:32:00,65.0,-99.9,-100.00,SSW,202,3.0,6.0,-999,0.00,,,0.00,,2013-05-13 17:32:00,
2013-05-13 12:42:00,65.0,-99.9,-100.00,SSW,202,3.0,6.0,-999,0.00,,,0.00,,2013-05-13 17:42:00,
2013-05-13 12:54:00,65.0,-99.9,-100.00,SSW,202,3.0,6.0,-999,0.00,,,0.00,,2013-05-13 17:54:00,
2013-05-13 13:04:00,65.0,-99.9,-100.00,SW,218,4.0,8.0,-999,0.00,,,0.00,,2013-05-13 18:04:00,
2013-05-13 13:13:00,65.0,-99.9,-100.00,SW,218,4.0,8.0,-999,0.00,,,0.00,,2013-05-13 18:13:00,
2013-05-13 13:23:00,65.0,-99.9,-100.00,SW,218,4.0,8.0,-999,0.00,,,0.00,,2013-05-13 18:23:00,
2013-05-13 14:01:00,69.0,-99.9,-100.00,South,184,4.0,6.0,-999,0.00,,,0.00,,2013-05-13 19:01:00,
2013-05-13 14:12:00,69.0,-99.9,-100.00,South,184,4.0,6.0,-999,0.00,,,0.00,,2013-05-13 19:12:00,
2013-05-13 14:22:00,69.0,-99.9,-100.00,South,184,4.0,6.0,-999,0.00,,,0.00,,2013-05-13 19:22:00,
2013-05-13 14:33:00,66.0,-99.9,-100.00,SSW,193,5.0,10.0,-999,0.00,,,0.00,,2013-05-13 19:33:00,
2013-05-13 14:44:00,66.0,-99.9,-100.00,SSW,193,5.0,10.0,-999,0.00,,,0.00,,2013-05-13 19:44:00,
2013-05-13 14:53:00,66.0,-99.9,-100.00,SSW,193,5.0,10.0,-999,0.00,,,0.00,,2013-05-13 19:53:00,
2013-05-13 15:02:00,69.0,-99.9,-100.00,South,184,4.0,6.0,-999,0.00,,,0.00,,2013-05-13 20:02:00,
2013-05-13 15:11:00,69.0,-99.9,-100.00,South,184,4.0,6.0,-999,0.00,,,0.00,,2013-05-13 20:11:00,
2013-05-13 15:23:00,69.0,-99.9,-100.00,South,184,4.0,6.0,-999,0.00,,,0.00,,2013-05-13 20:23:00,
2013-05-13 15:34:00,67.0,-99.9,-100.00,SW,229,6.0,8.0,-999,0.00,,,0.00,,2013-05-13 20:34:00,
2013-05-13 15:44:00,67.0,-99.9,-100.00,SW,229,6.0,8.0,-999,0.00,,,0.00,,2013-05-13 20:44:00,
2013-05-13 15:53:00,67.0,-99.9,-100.00,SW,229,6.0,8.0,-999,0.00,,,0.00,,2013-05-13 20:53:00,
2013-05-13 16:03:00,68.0,-99.9,-100.00,WSW,248,2.0,5.0,-999,0.00,,,0.00,,2013-05-13 21:03:00,
2013-05-13 16:14:00,68.0,-99.9,-100.00,WSW,248,2.0,5.0,-999,0.00,,,0.00,,2013-05-13 21:14:00,
2013-05-13 16:23:00,68.0,-99.9,-100.00,WSW,248,2.0,5.0,-999,0.00,,,0.00,,2013-05-13 21:23:00,
2013-05-13 16:30:00,68.0,-99.9,-100.00,SW,234,4.0,6.0,-999,0.00,,,0.00,,2013-05-13 21:30:00,
2013-05-13 16:34:00,68.0,-99.9,-100.00,WSW,251,3.0,5.0,-999,0.00,,,0.00,,2013-05-13 21:34:00,
2013-05-13 16:44:00,68.0,-99.9,-100.00,WSW,251,3.0,5.0,-999,0.00,,,0.00,,2013-05-13 21:44:00,
2013-05-13 16:53:00,68.0,-99.9,-100.00,WSW,251,3.0,5.0,-999,0.00,,,0.00,,2013-05-13 21:53:00,
2013-05-13 17:03:00,68.0,-99.9,-100.00,SW,234,4.0,6.0,-999,0.00,,,0.00,,2013-05-13 22:03:00,
2013-05-13 17:12:00,68.0,-99.9,-100.00,SW,234,4.0,6.0,-999,0.00,,,0.00,,2013-05-13 22:12:00,
2013-05-13 17:23:00,68.0,-99.9,-100.00,SW,234,4.0,6.0,-999,0.00,,,0.00,,2013-05-13 22:23:00,
2013-05-13 18:02:00,68.0,-99.9,-100.00,South,178,6.0,8.0,-999,0.00,,,0.00,,2013-05-13 23:02:00,
2013-05-13 18:13:00,68.0,-99.9,-100.00,South,178,6.0,8.0,-999,0.00,,,0.00,,2013-05-13 23:13:00,
2013-05-13 18:23:00,68.0,-99.9,-100.00,South,178,6.0,8.0,-999,0.00,,,0.00,,2013-05-13 23:23:00,
2013-05-13 18:30:00,68.0,-99.9,-100.00,SSE,164,5.0,8.0,-999,0.00,,,0.00,,2013-05-13 23:30:00,
2013-05-13 18:34:00,68.0,-99.9,-100.00,South,170,6.0,11.0,-999,0.00,,,0.00,,2013-05-13 23:34:00,
2013-05-13 18:42:00,68.0,-99.9,-100.00,South,170,6.0,11.0,-999,0.00,,,0.00,,2013-05-13 23:42:00,
2013-05-13 18:54:00,68.0,-99.9,-100.00,South,170,6.0,11.0,-999,0.00,,,0.00,,2013-05-13 23:54:00,
2013-05-13 19:03:00,68.0,-99.9,-100.00,SSE,164,5.0,8.0,-999,0.00,,,0.00,,2013-05-14 00:03:00,
2013-05-13 19:13:00,68.0,-99.9,-100.00,SSE,164,5.0,8.0,-999,0.00,,,0.00,,2013-05-14 00:13:00,
2013-05-13 19:23:00,68.0,-99.9,-100.00,SSE,164,5.0,8.0,-999,0.00,,,0.00,,2013-05-14 00:23:00,
2013-05-13 20:02:00,67.0,-99.9,-100.00,SSE,161,4.0,7.0,-999,0.00,,,0.00,,2013-05-14 01:02:00,
2013-05-13 20:11:00,67.0,-99.9,-100.00,SSE,161,4.0,7.0,-999,0.00,,,0.00,,2013-05-14 01:11:00,
2013-05-13 20:21:00,67.0,-99.9,-100.00,SSE,161,4.0,7.0,-999,0.00,,,0.00,,2013-05-14 01:21:00,
2013-05-13 20:32:00,66.0,-99.9,-100.00,SSE,162,4.0,7.0,-999,0.00,,,0.00,,2013-05-14 01:32:00,
2013-05-13 20:43:00,66.0,-99.9,-100.00,SSE,162,4.0,7.0,-999,0.00,,,0.00,,2013-05-14 01:43:00,
2013-05-13 20:53:00,66.0,-99.9,-100.00,SSE,162,4.0,7.0,-999,0.00,,,0.00,,2013-05-14 01:53:00,
2013-05-13 21:03:00,65.0,-99.9,-100.00,SSE,166,4.0,6.0,-999,0.00,,,0.00,,2013-05-14 02:03:00,
2013-05-13 21:12:00,65.0,-99.9,-100.00,SSE,166,4.0,6.0,-999,0.00,,,0.00,,2013-05-14 02:12:00,
2013-05-13 21:22:00,65.0,-99.9,-100.00,SSE,166,4.0,6.0,-999,0.00,,,0.00,,2013-05-14 02:22:00,
2013-05-13 21:32:00,65.0,-99.9,-100.00,SSE,168,4.0,5.0,-999,0.00,,,0.00,,2013-05-14 02:32:00,
2013-05-13 21:42:00,65.0,-99.9,-100.00,SSE,168,4.0,5.0,-999,0.00,,,0.00,,2013-05-14 02:42:00,
2013-05-13 21:52:00,65.0,-99.9,-100.00,SSE,168,4.0,5.0,-999,0.00,,,0.00,,2013-05-14 02:52:00,
2013-05-13 22:01:00,64.0,-99.9,-100.00,SSE,152,4.0,5.0,-999,0.00,,,0.00,,2013-05-14 03:01:00,
2013-05-13 22:11:00,64.0,-99.9,-100.00,SSE,152,4.0,5.0,-999,0.00,,,0.00,,2013-05-14 03:11:00,
2013-05-13 22:22:00,64.0,-99.9,-100.00,SSE,152,4.0,5.0,-999,0.00,,,0.00,,2013-05-14 03:22:00,
2013-05-13 22:33:00,63.0,-99.9,-100.00,SSE,155,3.0,5.0,-999,0.00,,,0.00,,2013-05-14 03:33:00,
2013-05-13 22:43:00,63.0,-99.9,-100.00,SSE,155,3.0,5.0,-999,0.00,,,0.00,,2013-05-14 03:43:00,
2013-05-13 22:53:00,63.0,-99.9,-100.00,SSE,155,3.0,5.0,-999,0.00,,,0.00,,2013-05-14 03:53:00,
2013-05-13 23:03:00,62.0,-99.9,-100.00,SSE,165,4.0,6.0,-999,0.00,,,0.00,,2013-05-14 04:03:00,
2013-05-13 23:13:00,62.0,-99.9,-100.00,SSE,165,4.0,6.0,-999,0.00,,,0.00,,2013-05-14 04:13:00,
2013-05-13 23:23:00,62.0,-99.9,-100.00,SSE,165,4.0,6.0,-999,0.00,,,0.00,,2013-05-14 04:23:00,
2013-05-13 23:33:00,62.0,-99.9,-100.00,SSE,166,5.0,7.0,-999,0.00,,,0.00,,2013-05-14 04:33:00,
2013-05-13 23:43:00,62.0,-99.9,-100.00,SSE,166,5.0,7.0,-999,0.00,,,0.00,,2013-05-14 04:43:00,
2013-05-13 23:53:00,62.0,-99.9,-100.00,SSE,166,5.0,7.0,-999,0.00,,,0.00,,2013-05-14 04:53:00,